SCP
0 0 0 0 0 0 0 0 0 0 0 0 0 0 0 0 0 0 0 0 0 0 -0 0 0 0 0 -0 0 0 0 0 0 0 0 0 0 0 0 0 0 0 0
0 0 0 0 0 0 0 0 0 0 0 0 0 0 0 0 0 0 0 0 0 0 -0 -0 0 -0 -0 -0 0 0 0 0 0 0 0 0 0 0 0 0 0 0 0
0 0 0 0 0 0 0 0 0 0 0 0 0 0 0 0 0 0 0 0 0 0 -0 -0 0 -0 -0 -0 0 0 0 0 0 0 0 0 0 0 0 0 0 0 0
0 0 0 0 0 0 0 0 0 0 0 0 0 0 0 0 0 0 0 0 -0 0 -0 0 0 0 -0 -0 0 0 0 0 0 0 0 0 0 0 0 0 0 0 0
0 0 0 0 0 0 0 0 0 0 0 0 0 0 0 0 0 0 0 0 -0 -0 0 -0 0 0 -0 0 0 0 0 0 0 0 0 0 0 0 0 0 0 0 0
0 0 0 0 0 0 0 0 0 0 0 0 0 0 0 0 0 0 0 0 -0 -0 0 0 -0 0 0 0 0 0 0 0 0 0 0 0 0 0 0 0 0 0 0
0 0 0 0 0 0 0 0 0 0 0 0 0 0 0 0 0 0 0 0 0 0 0 0 0 0 0 0 0 0 0 0 0 0 0 0 0 0 0 0 0 0 0
0 0 0 0 0 0 0 0 0 0 0 0 0 0 0 0 0 0 0 0 -0 -0 0 0 0 0 0 0 0 0 0 0 0 0 0 0 0 0 0 0 0 0 0
0 0 0 0 0 0 0 0 0 0 0 0 0 0 0 0 0 0 0 0 0 -0 0 0 0 0 0 0 0 0 0 0 0 0 0 0 0 0 0 0 0 0 0
0 0 0 0 0 -0 0 0 0 0 0 -0 0 0 0 0 0 0 0 0 -0 0 -0 0 0 0 0 0 0 0 0 0 0 0 0 0 0 0 0 0 0 0 0
0 0 0 0 0 -0 -0 0 0 0 0 -0 0 0 0 0 0 0 0 0 -0 0 0 0 0 0 0 0 0 0 0 0 0 0 0 0 0 0 0 0 0 0 0
-0 -0 -0 -0 -0 -0 -0 -0 0 0 0 0 0 0 0 0 0 0 -0 0 0 0 0 0 0 0 0 0 0 0 0 0 0 0 0 0 0 0 0 0 0 0 0
-0 -0 -0 -0 -0 -0 -0 -0 0 0 0 0 0 0 0 0 0 0 0 -0 0 0 0 0 0 0 0 0 0 0 0 0 0 0 0 0 0 0 0 0 0 0 0
-0 -0 -0 -0 -0 -0 -0 -0 -0 -0 0 0 0 0 0 0 0 0 0 0 0 0 0 0 0 0 0 0 0 0 0 0 0 0 0 0 0 0 0 0 0 0 0
-0 -0 -0 -0 -0 -0 -0 -0 -0 -0 0 0 0 0 0 0 0 0 0 0 0 0 -0 0 0 0 0 0 0 0 0 0 0 0 0 0 0 0 0 0 0 0 0
-0 -0 -0 -0 -0 -0 -0 -0 -0 -0 -0 0 0 0 0 0 0 0 0 0 0 0 0 0 0 0 -0 -0 -0 0 0 0 0 0 0 0 -0 0 0 0 0 0 0
-0 -0 -0 -0 -0 -0 -0 -0 -0 -0 -0 -0 0 0 0 0 0 0 0 0 0 0 0 0 0 0 0 0 0 0 0 0 0 0 0 -0 0 0 0 0 0 0 0
-0 -0 -0 -0 -0 -0 -0 -0 -0 -0 -0 -0 0 0 0 0 0 0 0 0 0 0 0 0 0 0 0 0 0 0 0 0 0 0 0 0 -0 0 0 0 0 0 0
-0 -0 -0 -0 -0 -0 -0 -0 -0 -0 -0 -0 -0 0 0 0 0 0 0 0 0 0 0 0 0 0 -0 0 0 0 0 0 0 -0 0 0 0 0 0 0 0 0 0
-0 -0 -0 -0 -0 -0 -0 -0 -0 -0 -0 -0 -0 0 0 0 0 0 0 0 0 0 0 0 0 0 0 0 0 0 0 -0 -0 -0 -0 0 0 0 0 0 -0 0 -0
-0 -0 -0 -0 -0 -0 -0 -0 -0 -0 -0 -0 -0 -0 0 0 0 0 0 0 0 0 0 0 0 0 0 0 -0 -0 -0 -0 -0 -0 -0 -0 0 0 0 0 0 0 0
-0 -0 -0 0 0 -0 -0 -0 -0 -0 -0 -0 -0 -0 -0 -0 0 -0 0 0 0 0 0 0 -0 -0 0 0 -0 -0 -0 -0 -0 -0 -0 -0 0 0 0 0 0 -0 -0
-0 -0 -0 0 0 -0 -0 -0 -0 -0 -0 -0 -0 -0 -0 -0 -0 -0 -0 0 0 0 0 0 0 -0 -0 -0 -0 -0 -0 0 -0 0 0 0 0 -0 -0 -0 -0 0 0
-0 -0 -0 0 0 -0 -0 -0 -0 -0 -0 0 -0 -0 -0 0 0 0 0 0 0 0 0 0 0 -0 -0 -0 -0 -0 -0 -0 -0 0 0 0 0 0 -0 0 0 0 0
0 -0 -0 0 0 0 -0 -0 0 0 0 0 0 0 0 -0 0 0 -0 0 0 -0 -0 -0 -0 -0 0 0 0 -0 0 0 0 -0 0 0 0 0 0 0 0 0 0
0 0 0 0 0 0 0 0 0 0 0 0 0 0 0 0 0 0 0 0 0 -0 -0 -0 -0 -0 -0 -0 -0 -0 -0 -0 -0 0 0 0 0 0 0 0 0 0 0
Wind_Speed_500mb
50 66 73 67 55 39 23 15 9 2 6 11 13 17 22 22 24 26 30 23 21 23 25 18 17 22 23 31 35 36 36 35 31 35 35 36 39 39 39 46 51 46 43
47 72 73 65 51 35 20 13 4 2 2 10 16 22 24 18 22 18 26 21 3 16 16 11 16 24 28 33 37 39 41 39 37 51 44 31 27 31 33 45 44 51 49
73 77 71 58 47 31 17 12 5 0 3 11 18 21 18 18 19 15 25 11 4 12 12 11 14 23 30 40 39 36 37 44 45 44 39 25 17 43 46 48 49 52 49
75 83 70 60 45 26 19 10 6 2 1 11 20 25 25 23 15 16 17 4 3 7 14 12 19 21 28 40 39 38 38 45 52 47 39 30 46 23 28 45 40 49 48
82 80 71 58 37 24 21 8 5 5 4 10 23 27 24 14 8 11 7 5 2 9 10 15 19 18 24 32 41 41 40 45 47 45 39 33 53 44 46 40 50 39 35
73 71 62 47 35 27 21 9 7 7 8 9 19 23 11 10 11 9 9 7 3 7 16 18 22 19 24 31 36 39 43 42 41 42 49 48 60 47 58 45 49 47 40
69 68 62 51 38 33 25 11 9 7 11 10 14 11 13 10 15 14 11 7 3 5 10 27 27 25 24 29 33 37 40 39 44 39 42 41 48 69 43 53 49 44 43
66 70 60 50 37 34 26 13 15 12 15 7 10 7 12 12 17 16 13 5 8 13 13 26 31 30 29 30 33 36 36 38 38 38 37 41 46 54 53 59 65 50 45
70 66 58 48 37 35 25 17 20 17 16 7 2 7 12 10 16 19 11 7 13 14 14 22 30 33 30 31 32 32 31 36 40 38 35 40 39 58 45 53 62 66 47
68 64 59 49 38 30 26 24 23 20 14 5 4 9 12 11 14 14 12 12 10 15 17 22 28 33 35 33 34 31 33 43 39 38 36 35 41 48 44 42 52 52 54
71 66 59 47 40 33 33 27 27 22 15 7 5 6 10 13 14 15 12 14 14 15 19 21 28 33 35 37 40 36 38 43 35 34 34 37 37 44 38 42 47 39 47
73 65 57 52 46 42 38 28 29 23 16 8 8 6 9 12 15 23 16 15 12 16 16 23 23 31 35 38 37 37 37 40 44 34 32 36 40 40 42 43 44 42 37
71 66 62 57 50 47 39 26 31 28 22 12 11 11 7 9 14 24 24 22 20 24 19 21 24 28 35 38 38 36 41 43 31 25 31 39 45 41 39 39 35 33 33
75 70 67 62 52 48 40 31 29 32 25 15 16 15 10 11 17 19 27 33 28 25 22 25 22 27 29 33 32 40 51 39 27 25 35 51 46 46 47 40 48 38 42
76 76 74 67 56 52 43 36 26 35 31 22 20 11 13 19 23 22 19 22 21 23 25 19 24 23 25 22 31 43 51 37 40 36 44 50 44 51 47 45 48 43 42
81 80 77 69 62 56 48 44 34 38 39 28 23 11 23 28 23 21 22 19 18 18 20 17 19 15 16 33 28 31 48 46 37 40 48 39 50 50 42 42 39 37 36
85 84 83 77 66 60 51 49 42 38 43 33 26 16 28 31 25 22 28 20 16 16 13 21 29 16 17 20 41 41 36 34 36 41 58 49 51 45 36 25 19 30 30
87 87 84 79 68 59 54 45 49 43 46 38 31 24 29 36 30 27 25 22 16 10 14 23 23 22 29 34 33 32 31 45 44 53 62 59 49 37 23 23 23 24 27
86 88 85 79 71 64 58 54 56 50 52 42 37 29 27 41 38 34 30 26 21 14 19 21 22 26 31 31 30 30 34 43 58 61 51 50 34 29 30 30 21 26 20
87 87 87 83 73 70 66 64 62 59 57 45 36 32 23 39 36 40 34 29 23 17 21 25 21 19 26 30 30 32 37 44 59 52 40 37 37 36 32 33 28 29 26
90 84 86 86 79 74 74 72 65 66 52 43 34 36 28 30 35 42 38 33 27 20 21 27 28 24 21 26 30 33 38 43 46 43 41 40 33 31 30 29 31 29 30
93 87 84 88 82 79 79 76 69 60 53 46 38 43 39 28 34 35 39 36 35 32 28 23 26 29 27 27 32 31 28 30 34 39 39 38 36 32 31 31 30 28 26
94 90 81 87 86 84 82 76 67 62 58 52 44 46 48 41 34 32 38 41 36 44 40 34 26 29 33 36 32 32 33 31 29 31 35 34 34 34 31 28 28 26 24
93 90 87 89 88 87 85 72 63 61 61 58 51 51 54 50 44 40 34 40 43 47 51 41 39 30 31 41 45 41 34 33 35 34 36 36 36 37 36 34 30 25 25
92 94 89 85 83 85 87 79 65 65 64 61 57 60 58 56 51 45 36 36 41 46 52 49 40 39 35 41 45 46 41 39 40 38 43 46 45 45 43 39 35 33 31
93 96 86 80 84 84 83 79 71 66 66 65 65 67 66 65 59 53 46 39 28 34 43 43 43 37 27 32 39 44 43 41 44 46 49 49 47 44 43 40 37 37 37
Wind_Direction_500mb
241 208 197 199 201 201 201 216 238 349 358 328 329 323 324 314 316 324 326 321 284 231 230 227 223 214 194 185 183 184 181 183 189 179 186 174 189 197 193 198 193 187 190
191 182 187 194 200 192 198 207 220 127 5 345 342 333 326 326 322 327 339 333 264 190 206 225 197 194 185 185 186 189 186 188 187 178 169 159 167 185 193 194 194 190 193
179 181 185 190 189 184 202 193 170 152 267 347 347 336 335 332 327 320 334 315 188 188 199 183 184 184 186 187 187 189 194 184 178 182 164 153 169 173 181 189 192 190 194
184 183 181 185 179 185 185 185 154 257 228 331 334 338 338 336 335 339 346 336 211 231 187 184 186 185 186 191 191 192 184 177 172 185 180 172 175 156 149 169 178 181 194
184 180 186 179 179 186 182 160 158 186 151 327 327 336 336 349 24 1 340 332 298 223 203 186 197 177 183 182 186 192 185 183 188 189 185 185 170 163 151 146 167 170 181
178 183 179 177 176 177 177 169 170 139 154 280 327 343 16 71 27 357 335 319 278 216 207 180 185 175 181 179 182 187 187 187 192 183 190 185 167 172 161 155 165 172 176
180 179 177 177 177 178 177 178 162 150 173 254 344 24 70 41 7 14 10 357 131 169 171 171 179 170 169 178 176 183 183 188 193 190 190 193 182 178 170 165 164 166 176
181 178 180 180 179 179 180 179 163 171 182 264 349 62 40 41 28 24 18 97 156 139 140 167 170 168 169 170 173 181 183 186 189 193 201 184 187 163 196 190 171 161 171
179 178 181 182 180 181 186 184 180 183 189 271 13 65 28 18 21 30 31 82 125 113 126 153 172 172 179 176 174 176 183 185 184 196 195 194 187 191 193 193 183 174 166
178 178 182 181 184 185 180 181 188 189 187 266 104 45 59 45 32 34 71 95 124 119 133 145 153 162 167 173 174 175 183 176 184 192 193 190 197 194 196 193 183 181 177
180 180 182 184 186 183 183 182 183 186 191 225 179 62 64 54 51 45 98 102 91 118 132 143 152 152 157 169 174 173 176 180 181 189 189 187 187 185 188 186 182 178 182
181 181 182 183 185 185 185 188 186 196 205 206 205 140 82 75 74 63 86 110 103 109 127 136 143 151 157 166 173 166 170 179 172 168 174 175 175 185 182 187 184 177 177
179 181 182 185 187 189 190 188 193 196 192 187 181 170 133 118 86 78 77 105 114 116 120 140 142 142 159 162 167 171 159 150 153 174 184 174 162 162 161 170 169 158 171
180 183 185 189 190 192 194 192 189 192 193 188 189 187 150 138 119 105 90 90 101 102 112 132 151 155 162 175 171 178 167 155 138 128 155 155 156 154 149 146 160 154 141
183 187 190 192 193 193 194 193 187 189 197 192 192 184 153 149 134 128 115 103 119 99 90 133 134 150 163 166 175 172 177 163 138 125 150 152 150 157 146 137 144 150 153
189 194 196 195 195 195 193 193 188 189 198 195 198 183 160 147 141 129 128 128 110 98 89 112 143 127 142 183 171 156 160 159 145 141 154 147 147 143 132 133 147 154 159
191 198 199 199 198 197 194 194 191 189 196 196 197 192 172 163 156 149 150 134 121 105 99 98 130 129 125 131 179 187 184 178 162 153 156 158 161 147 132 131 151 146 153
195 203 202 202 200 198 196 192 192 192 197 196 197 197 181 169 163 164 162 156 141 103 117 119 126 124 127 116 127 139 157 170 174 167 163 153 151 153 143 147 152 144 147
200 203 205 205 199 197 194 190 192 195 199 198 196 200 194 179 180 177 176 174 166 142 145 139 128 120 124 132 131 134 131 145 152 164 172 174 163 163 158 156 151 160 166
200 202 207 204 201 197 193 190 193 196 200 202 199 198 192 188 188 187 187 183 182 161 156 161 154 141 131 129 138 145 149 149 159 155 155 164 165 163 163 169 173 176 176
199 202 205 205 202 198 195 194 195 199 204 204 201 198 198 191 186 184 189 197 198 192 161 166 165 165 156 147 143 147 147 151 158 165 165 165 169 170 170 179 197 202 202
198 200 203 205 203 200 196 198 200 202 198 201 198 200 202 189 189 193 190 196 203 201 183 172 169 176 176 172 169 172 168 164 166 165 166 172 177 182 184 185 185 184 184
197 198 201 203 204 201 200 201 204 198 194 196 197 198 204 201 195 195 200 200 201 199 196 194 192 189 192 194 192 186 187 189 185 182 186 189 191 191 187 188 188 187 194
196 196 200 202 203 203 205 209 204 197 195 196 199 202 206 206 205 206 207 207 206 200 199 204 208 207 205 202 203 201 198 194 192 193 197 198 197 193 193 195 199 207 222
194 196 198 202 205 205 206 206 204 198 197 198 201 207 210 211 209 213 215 215 216 212 205 209 211 212 215 207 205 205 200 195 190 193 194 195 195 194 197 204 213 222 237
194 196 198 204 206 205 207 206 203 203 200 198 203 208 212 213 213 213 215 217 219 221 219 220 221 224 226 209 207 207 204 202 196 197 198 198 200 204 208 215 227 236 237
Wind_Speed_850mb
50 66 73 67 55 39 23 15 9 2 6 11 13 17 22 22 24 26 30 23 21 23 25 18 17 22 23 31 35 36 36 35 31 35 35 36 39 39 39 46 51 46 43
47 72 73 65 51 35 20 13 4 2 2 10 16 22 24 18 22 18 26 21 3 16 16 11 16 24 28 33 37 39 41 39 37 51 44 31 27 31 33 45 44 51 49
73 77 71 58 47 31 17 12 5 0 3 11 18 21 18 18 19 15 25 11 4 12 12 11 14 23 30 40 39 36 37 44 45 44 39 25 17 43 46 48 49 52 49
75 83 70 60 45 26 19 10 6 2 1 11 20 25 25 23 15 16 17 4 3 7 14 12 19 21 28 40 39 38 38 45 52 47 39 30 46 23 28 45 40 49 48
82 80 71 58 37 24 21 8 5 5 4 10 23 27 24 14 8 11 7 5 2 9 10 15 19 18 24 32 41 41 40 45 47 45 39 33 53 44 46 40 50 39 35
73 71 62 47 35 27 21 9 7 7 8 9 19 23 11 10 11 9 9 7 3 7 16 18 22 19 24 31 36 39 43 42 41 42 49 48 60 47 58 45 49 47 40
69 68 62 51 38 33 25 11 9 7 11 10 14 11 13 10 15 14 11 7 3 5 10 27 27 25 24 29 33 37 40 39 44 39 42 41 48 69 43 53 49 44 43
66 70 60 50 37 34 26 13 15 12 15 7 10 7 12 12 17 16 13 5 8 13 13 26 31 30 29 30 33 36 36 38 38 38 37 41 46 54 53 59 65 50 45
70 66 58 48 37 35 25 17 20 17 16 7 2 7 12 10 16 19 11 7 13 14 14 22 30 33 30 31 32 32 31 36 40 38 35 40 39 58 45 53 62 66 47
68 64 59 49 38 30 26 24 23 20 14 5 4 9 12 11 14 14 12 12 10 15 17 22 28 33 35 33 34 31 33 43 39 38 36 35 41 48 44 42 52 52 54
71 66 59 47 40 33 33 27 27 22 15 7 5 6 10 13 14 15 12 14 14 15 19 21 28 33 35 37 40 36 38 43 35 34 34 37 37 44 38 42 47 39 47
73 65 57 52 46 42 38 28 29 23 16 8 8 6 9 12 15 23 16 15 12 16 16 23 23 31 35 38 37 37 37 40 44 34 32 36 40 40 42 43 44 42 37
71 66 62 57 50 47 39 26 31 28 22 12 11 11 7 9 14 24 24 22 20 24 19 21 24 28 35 38 38 36 41 43 31 25 31 39 45 41 39 39 35 33 33
75 70 67 62 52 48 40 31 29 32 25 15 16 15 10 11 17 19 27 33 28 25 22 25 22 27 29 33 32 40 51 39 27 25 35 51 46 46 47 40 48 38 42
76 76 74 67 56 52 43 36 26 35 31 22 20 11 13 19 23 22 19 22 21 23 25 19 24 23 25 22 31 43 51 37 40 36 44 50 44 51 47 45 48 43 42
81 80 77 69 62 56 48 44 34 38 39 28 23 11 23 28 23 21 22 19 18 18 20 17 19 15 16 33 28 31 48 46 37 40 48 39 50 50 42 42 39 37 36
85 84 83 77 66 60 51 49 42 38 43 33 26 16 28 31 25 22 28 20 16 16 13 21 29 16 17 20 41 41 36 34 36 41 58 49 51 45 36 25 19 30 30
87 87 84 79 68 59 54 45 49 43 46 38 31 24 29 36 30 27 25 22 16 10 14 23 23 22 29 34 33 32 31 45 44 53 62 59 49 37 23 23 23 24 27
86 88 85 79 71 64 58 54 56 50 52 42 37 29 27 41 38 34 30 26 21 14 19 21 22 26 31 31 30 30 34 43 58 61 51 50 34 29 30 30 21 26 20
87 87 87 83 73 70 66 64 62 59 57 45 36 32 23 39 36 40 34 29 23 17 21 25 21 19 26 30 30 32 37 44 59 52 40 37 37 36 32 33 28 29 26
90 84 86 86 79 74 74 72 65 66 52 43 34 36 28 30 35 42 38 33 27 20 21 27 28 24 21 26 30 33 38 43 46 43 41 40 33 31 30 29 31 29 30
93 87 84 88 82 79 79 76 69 60 53 46 38 43 39 28 34 35 39 36 35 32 28 23 26 29 27 27 32 31 28 30 34 39 39 38 36 32 31 31 30 28 26
94 90 81 87 86 84 82 76 67 62 58 52 44 46 48 41 34 32 38 41 36 44 40 34 26 29 33 36 32 32 33 31 29 31 35 34 34 34 31 28 28 26 24
93 90 87 89 88 87 85 72 63 61 61 58 51 51 54 50 44 40 34 40 43 47 51 41 39 30 31 41 45 41 34 33 35 34 36 36 36 37 36 34 30 25 25
92 94 89 85 83 85 87 79 65 65 64 61 57 60 58 56 51 45 36 36 41 46 52 49 40 39 35 41 45 46 41 39 40 38 43 46 45 45 43 39 35 33 31
93 96 86 80 84 84 83 79 71 66 66 65 65 67 66 65 59 53 46 39 28 34 43 43 43 37 27 32 39 44 43 41 44 46 49 49 47 44 43 40 37 37 37
Wind_Direction_850mb
241 208 197 199 201 201 201 216 238 349 358 328 329 323 324 314 316 324 326 321 284 231 230 227 223 214 194 185 183 184 181 183 189 179 186 174 189 197 193 198 193 187 190
191 182 187 194 200 192 198 207 220 127 5 345 342 333 326 326 322 327 339 333 264 190 206 225 197 194 185 185 186 189 186 188 187 178 169 159 167 185 193 194 194 190 193
179 181 185 190 189 184 202 193 170 152 267 347 347 336 335 332 327 320 334 315 188 188 199 183 184 184 186 187 187 189 194 184 178 182 164 153 169 173 181 189 192 190 194
184 183 181 185 179 185 185 185 154 257 228 331 334 338 338 336 335 339 346 336 211 231 187 184 186 185 186 191 191 192 184 177 172 185 180 172 175 156 149 169 178 181 194
184 180 186 179 179 186 182 160 158 186 151 327 327 336 336 349 24 1 340 332 298 223 203 186 197 177 183 182 186 192 185 183 188 189 185 185 170 163 151 146 167 170 181
178 183 179 177 176 177 177 169 170 139 154 280 327 343 16 71 27 357 335 319 278 216 207 180 185 175 181 179 182 187 187 187 192 183 190 185 167 172 161 155 165 172 176
180 179 177 177 177 178 177 178 162 150 173 254 344 24 70 41 7 14 10 357 131 169 171 171 179 170 169 178 176 183 183 188 193 190 190 193 182 178 170 165 164 166 176
181 178 180 180 179 179 180 179 163 171 182 264 349 62 40 41 28 24 18 97 156 139 140 167 170 168 169 170 173 181 183 186 189 193 201 184 187 163 196 190 171 161 171
179 178 181 182 180 181 186 184 180 183 189 271 13 65 28 18 21 30 31 82 125 113 126 153 172 172 179 176 174 176 183 185 184 196 195 194 187 191 193 193 183 174 166
178 178 182 181 184 185 180 181 188 189 187 266 104 45 59 45 32 34 71 95 124 119 133 145 153 162 167 173 174 175 183 176 184 192 193 190 197 194 196 193 183 181 177
180 180 182 184 186 183 183 182 183 186 191 225 179 62 64 54 51 45 98 102 91 118 132 143 152 152 157 169 174 173 176 180 181 189 189 187 187 185 188 186 182 178 182
181 181 182 183 185 185 185 188 186 196 205 206 205 140 82 75 74 63 86 110 103 109 127 136 143 151 157 166 173 166 170 179 172 168 174 175 175 185 182 187 184 177 177
179 181 182 185 187 189 190 188 193 196 192 187 181 170 133 118 86 78 77 105 114 116 120 140 142 142 159 162 167 171 159 150 153 174 184 174 162 162 161 170 169 158 171
180 183 185 189 190 192 194 192 189 192 193 188 189 187 150 138 119 105 90 90 101 102 112 132 151 155 162 175 171 178 167 155 138 128 155 155 156 154 149 146 160 154 141
183 187 190 192 193 193 194 193 187 189 197 192 192 184 153 149 134 128 115 103 119 99 90 133 134 150 163 166 175 172 177 163 138 125 150 152 150 157 146 137 144 150 153
189 194 196 195 195 195 193 193 188 189 198 195 198 183 160 147 141 129 128 128 110 98 89 112 143 127 142 183 171 156 160 159 145 141 154 147 147 143 132 133 147 154 159
191 198 199 199 198 197 194 194 191 189 196 196 197 192 172 163 156 149 150 134 121 105 99 98 130 129 125 131 179 187 184 178 162 153 156 158 161 147 132 131 151 146 153
195 203 202 202 200 198 196 192 192 192 197 196 197 197 181 169 163 164 162 156 141 103 117 119 126 124 127 116 127 139 157 170 174 167 163 153 151 153 143 147 152 144 147
200 203 205 205 199 197 194 190 192 195 199 198 196 200 194 179 180 177 176 174 166 142 145 139 128 120 124 132 131 134 131 145 152 164 172 174 163 163 158 156 151 160 166
200 202 207 204 201 197 193 190 193 196 200 202 199 198 192 188 188 187 187 183 182 161 156 161 154 141 131 129 138 145 149 149 159 155 155 164 165 163 163 169 173 176 176
199 202 205 205 202 198 195 194 195 199 204 204 201 198 198 191 186 184 189 197 198 192 161 166 165 165 156 147 143 147 147 151 158 165 165 165 169 170 170 179 197 202 202
198 200 203 205 203 200 196 198 200 202 198 201 198 200 202 189 189 193 190 196 203 201 183 172 169 176 176 172 169 172 168 164 166 165 166 172 177 182 184 185 185 184 184
197 198 201 203 204 201 200 201 204 198 194 196 197 198 204 201 195 195 200 200 201 199 196 194 192 189 192 194 192 186 187 189 185 182 186 189 191 191 187 188 188 187 194
196 196 200 202 203 203 205 209 204 197 195 196 199 202 206 206 205 206 207 207 206 200 199 204 208 207 205 202 203 201 198 194 192 193 197 198 197 193 193 195 199 207 222
194 196 198 202 205 205 206 206 204 198 197 198 201 207 210 211 209 213 215 215 216 212 205 209 211 212 215 207 205 205 200 195 190 193 194 195 195 194 197 204 213 222 237
194 196 198 204 206 205 207 206 203 203 200 198 203 208 212 213 213 213 215 217 219 221 219 220 221 224 226 209 207 207 204 202 196 197 198 198 200 204 208 215 227 236 237